Starlink 34550

operational
NORAD ID: 64683 Int'l Des: 2025-139 Owner: SPXS Country: US Constellation: starlink
LEOCIRCULAR

About Starlink 34550

Description loading...

Live Position

Loading 3D Globe...

Upcoming Passes

Altitude History

Altitude vs Time

uPlot chart will show altitude changes over time

Two-Line Element Set

1 64683U 25139V 25340.54778156 .00047225 00000-0 15955-2 0 9991
2 64683 53.1572 199.6751 0001469 103.1538 256.9626 15.30220503 26028
Epoch: Dec 6, 2025 • Age: 17 hours

Current Status

Altitude 492.5 km
Velocity 7.62 km/s
Sub-Earth Point -48.15°S, 27.56°W
Launch Date Jun 28, 2025
Age 0.4 years
Type internet

Technical Details

Classification Payload
Mass 575.00 kg
Dry Mass 530.00 kg
Total Mass 575.00 kg
Length 0.30 m
Diameter 4.10 m
Span 29.00 m
Shape Box + pan
Manufacturer SPXS
Bus Type Starlink V2MO
Phase Status In Orbit
Owner/State SPXS/US

Large Constellations

Loading constellations...